K7CTM Weather Reports


time (UTC)temp
C
wind
direction
speed
KPH
gust
KPH
rain 1hr
cm
rain 24hr
cm
rain mn
cm
humidity
%
barometer
mb
20260510034729 13 176 1.6 1.6 0.00 0.00 0.00 52 1030.6
20260510034228 12 223 0.0 0.0 0.00 0.00 0.00 53 1030.7
20260510033722 13 320 1.6 1.6 0.00 0.00 0.00 52 1030.6
20260510033221 13 28 0.0 1.6 0.00 0.00 0.00 51 1030.5
20260510032717 13 216 0.0 0.0 0.00 0.00 0.00 50 1030.5
20260510032213 13 91 3.2 3.2 0.00 0.00 0.00 50 1030.2
20260510031707 13 226 0.0 0.0 0.00 0.00 0.00 51 1030.2
20260510031204 13 249 0.0 0.0 0.00 0.00 0.00 49 1030.0
20260510030658 13 197 1.6 1.6 0.00 0.00 0.00 49 1030.0
20260510030156 13 209 1.6 1.6 0.00 0.00 0.00 49 1029.9
20260510025653 14 94 1.6 1.6 0.00 0.00 0.00 48 1029.9
20260510025150 14 193 1.6 1.6 0.00 0.00 0.00 48 1029.6
20260510024648 13 93 3.2 3.2 0.00 0.00 0.00 48 1029.7
20260510024144 13 166 3.2 3.2 0.00 0.00 0.00 48 1029.7
20260510023639 13 127 3.2 3.2 0.00 0.00 0.00 48 1029.6
20260510023137 13 78 3.2 3.2 0.00 0.00 0.00 49 1029.6
20260510022631 13 205 1.6 1.6 0.00 0.00 0.00 50 1029.6
20260510022126 13 179 3.2 4.8 0.00 0.00 0.00 52 1029.5
20260510021622 13 178 1.6 3.2 0.00 0.00 0.00 51 1029.6
20260510021120 13 187 1.6 1.6 0.00 0.00 0.00 51 1029.4
20260510020613 13 194 1.6 1.6 0.00 0.00 0.00 51 1029.5
20260510020109 13 148 1.6 3.2 0.00 0.00 0.00 51 1029.4
20260510015605 15 228 0.0 0.0 0.00 0.00 0.00 51 1029.2
20260510015102 15 285 0.0 0.0 0.00 0.00 0.00 47 1029.1
20260510014557 15 204 1.6 3.2 0.00 0.00 0.00 47 1029.1
20260510014055 15 130 3.2 4.8 0.00 0.00 0.00 45 1029.1
20260510013550 15 175 1.6 1.6 0.00 0.00 0.00 46 1029.0
20260510013046 16 174 3.2 4.8 0.00 0.00 0.00 46 1029.0
20260510012545 16 227 1.6 1.6 0.00 0.00 0.00 45 1028.8
20260510012042 16 208 1.6 3.2 0.00 0.00 0.00 45 1029.0
20260510011542 16 182 1.6 3.2 0.00 0.00 0.00 44 1028.9
20260510011037 16 142 1.6 3.2 0.00 0.00 0.00 44 1028.9
20260510010534 17 272 1.6 1.6 0.00 0.00 0.00 45 1029.1
20260510010031 17 118 3.2 4.8 0.00 0.00 0.00 43 1028.9
20260510005522 16 104 3.2 4.8 0.00 0.00 0.00 45 1029.0
20260510005020 17 104 4.8 4.8 0.00 0.00 0.00 43 1028.9
20260510004517 17 285 3.2 3.2 0.00 0.00 0.00 43 1029.0
20260510004015 17 274 0.0 1.6 0.00 0.00 0.00 44 1028.9
20260510003511 18 296 3.2 3.2 0.00 0.00 0.00 42 1029.0
20260510003007 18 254 1.6 1.6 0.00 0.00 0.00 42 1028.8
20260510002503 18 267 3.2 4.8 0.00 0.00 0.00 41 1028.9
20260510002000 18 273 6.4 9.7 0.00 0.00 0.00 42 1028.8
20260510001457 18 45 3.2 4.8 0.00 0.00 0.00 40 1028.9
20260510000955 18 246 1.6 3.2 0.00 0.00 0.00 42 1028.8
20260510000450 18 275 3.2 4.8 0.00 0.00 0.00 42 1028.8
20260509235947 18 352 6.4 6.4 0.00 0.00 0.00 41 1028.7
20260509235444 18 255 3.2 4.8 0.00 0.00 0.00 41 1028.7
20260509234940 17 305 9.7 12.9 0.00 0.00 0.00 42 1028.8
20260509234437 17 43 3.2 4.8 0.00 0.00 0.00 42 1028.6
20260509233935 18 232 1.6 3.2 0.00 0.00 0.00 42 1028.7
20260509233432 18 239 9.7 11.3 0.00 0.00 0.00 42 1028.7
20260509232928 18 347 1.6 1.6 0.00 0.00 0.00 41 1028.5
20260509232427 18 273 3.2 3.2 0.00 0.00 0.00 40 1028.6
20260509231921 17 5 8.0 12.9 0.00 0.00 0.00 41 1028.5
20260509231418 17 249 4.8 6.4 0.00 0.00 0.00 43 1028.5
20260509230917 17 253 6.4 6.4 0.00 0.00 0.00 43 1028.5
20260509230413 17 280 3.2 6.4 0.00 0.00 0.00 46 1028.5
20260509225909 16 339 1.6 3.2 0.00 0.00 0.00 45 1028.6
20260509225406 16 314 6.4 9.7 0.00 0.00 0.00 43 1028.6
20260509224901 16 353 6.4 9.7 0.00 0.00 0.00 43 1028.6
20260509224357 16 301 3.2 4.8 0.00 0.00 0.00 45 1028.5
20260509223855 16 354 4.8 6.4 0.00 0.00 0.00 44 1028.3
20260509223351 16 6 4.8 6.4 0.00 0.00 0.00 43 1028.5
20260509222849 16 333 4.8 4.8 0.00 0.00 0.00 43 1028.3
20260509222348 18 37 8.0 11.3 0.00 0.00 0.00 40 1028.1
20260509221844 17 45 8.0 9.7 0.00 0.00 0.00 40 1028.3
20260509221342 18 307 12.9 16.1 0.00 0.00 0.00 38 1028.5
20260509220842 18 274 0.0 1.6 0.00 0.00 0.00 39 1028.3
20260509220339 17 346 6.4 6.4 0.00 0.00 0.00 40 1028.2
20260509215834 18 56 3.2 4.8 0.00 0.00 0.00 38 1028.2
20260509215331 18 299 8.0 9.7 0.00 0.00 0.00 36 1028.5
20260509214828 18 307 6.4 9.7 0.00 0.00 0.00 39 1028.3
20260509214326 17 296 6.4 6.4 0.00 0.00 0.00 40 1028.1
20260509213823 18 265 6.4 6.4 0.00 0.00 0.00 40 1028.2
20260509213318 17 355 1.6 4.8 0.00 0.00 0.00 43 1028.3
20260509212816 17 255 3.2 3.2 0.00 0.00 0.00 40 1028.5
20260509212313 17 312 6.4 9.7 0.00 0.00 0.00 39 1028.6
20260509211809 17 314 3.2 4.8 0.00 0.00 0.00 42 1028.3
20260509211304 17 293 6.4 9.7 0.00 0.00 0.00 42 1028.3
20260509210801 17 326 11.3 14.5 0.00 0.00 0.00 43 1028.2
20260509210259 18 358 11.3 14.5 0.00 0.00 0.00 39 1028.3
20260509205758 18 285 6.4 6.4 0.00 0.00 0.00 41 1028.5
20260509205253 17 295 9.7 14.5 0.00 0.00 0.00 42 1028.2
20260509204750 16 319 8.0 14.5 0.00 0.00 0.00 37 1028.2
20260509204246 17 318 24.1 29.0 0.00 0.00 0.00 37 1028.3
20260509203742 17 19 12.9 17.7 0.00 0.00 0.00 39 1028.2
20260509203240 17 351 14.5 17.7 0.00 0.00 0.00 41 1028.2
20260509202736 16 5 8.0 9.7 0.00 0.00 0.00 40 1028.0
20260509202232 17 332 6.4 11.3 0.00 0.00 0.00 41 1027.8
20260509201726 17 253 4.8 6.4 0.00 0.00 0.00 43 1028.1
20260509201223 17 351 12.9 14.5 0.00 0.00 0.00 38 1027.8
20260509200720 17 15 9.7 12.9 0.00 0.00 0.00 40 1027.8
20260509200215 16 349 9.7 11.3 0.00 0.00 0.00 42 1027.9
20260509195712 17 334 14.5 17.7 0.00 0.00 0.00 42 1027.9
20260509195207 17 26 6.4 12.9 0.00 0.00 0.00 41 1027.9
20260509194706 17 300 8.0 9.7 0.00 0.00 0.00 42 1027.5
20260509194203 17 250 6.4 9.7 0.00 0.00 0.00 43 1027.7
20260509193700 17 301 11.3 12.9 0.00 0.00 0.00 47 1027.8
20260509193155 16 243 6.4 11.3 0.00 0.00 0.00 47 1027.9
20260509192651 17 350 6.4 9.7 0.00 0.00 0.00 47 1027.8
20260509192148 17 352 9.7 12.9 0.00 0.00 0.00 46 1027.4
20260509191647 17 357 3.2 3.2 0.00 0.00 0.00 43 1027.4
20260509191144 17 13 6.4 9.7 0.00 0.00 0.00 40 1027.5
20260509190640 16 8 6.4 9.7 0.00 0.00 0.00 45 1027.5
20260509190137 16 323 3.2 4.8 0.00 0.00 0.00 46 1027.5
20260509185635 17 4 11.3 14.5 0.00 0.00 0.00 40 1027.7
20260509185132 16 252 1.6 1.6 0.00 0.00 0.00 46 1027.5
20260509184630 16 257 8.0 12.9 0.00 0.00 0.00 44 1027.7
20260509184126 17 5 8.0 11.3 0.00 0.00 0.00 38 1027.8
20260509183622 17 4 14.5 17.7 0.00 0.00 0.00 36 1027.8
20260509183117 16 220 1.6 3.2 0.00 0.00 0.00 36 1027.7
20260509182613 17 320 8.0 12.9 0.00 0.00 0.00 40 1027.8
20260509182110 17 280 1.6 3.2 0.00 0.00 0.00 41 1027.7
20260509181609 17 2 6.4 6.4 0.00 0.00 0.00 40 1027.8
20260509181106 17 155 1.6 3.2 0.00 0.00 0.00 42 1027.8
20260509180602 16 322 12.9 14.5 0.00 0.00 0.00 43 1027.7
20260509180059 16 321 8.0 9.7 0.00 0.00 0.00 45 1027.5
20260509175554 16 335 3.2 4.8 0.00 0.00 0.00 45 1027.5
20260509175052 16 60 9.7 12.9 0.00 0.00 0.00 41 1027.8
20260509174543 15 278 19.3 24.1 0.00 0.00 0.00 34 1027.7
20260509174038 16 283 12.9 17.7 0.00 0.00 0.00 34 1027.9
20260509173538 17 13 8.0 9.7 0.00 0.00 0.00 35 1027.7
20260509173034 16 254 6.4 6.4 0.00 0.00 0.00 35 1027.7
20260509172531 16 13 17.7 22.5 0.00 0.00 0.00 34 1027.7
20260509172027 16 49 8.0 9.7 0.00 0.00 0.00 34 1027.4
20260509171523 16 345 9.7 12.9 0.00 0.00 0.00 36 1027.7
20260509171020 16 21 6.4 6.4 0.00 0.00 0.00 35 1027.8
20260509170515 16 333 12.9 14.5 0.00 0.00 0.00 35 1027.5
20260509170012 15 9 9.7 11.3 0.00 0.00 0.00 35 1027.5
20260509165510 15 8 14.5 17.7 0.00 0.00 0.00 35 1027.4
20260509165006 15 283 14.5 20.9 0.00 0.00 0.00 37 1027.8
20260509164502 15 289 14.5 17.7 0.00 0.00 0.00 37 1027.5
20260509163958 15 305 19.3 25.7 0.00 0.00 0.00 37 1027.4
20260509163456 15 281 24.1 30.6 0.00 0.00 0.00 35 1027.4
20260509162955 15 332 11.3 16.1 0.00 0.00 0.00 35 1027.5
20260509162454 15 298 22.5 25.7 0.00 0.00 0.00 33 1027.5
20260509161949 15 316 12.9 14.5 0.00 0.00 0.00 35 1027.4
20260509161446 15 288 19.3 25.7 0.00 0.00 0.00 34 1027.5
20260509160941 15 329 17.7 22.5 0.00 0.00 0.00 34 1027.3
20260509160437 15 304 22.5 27.4 0.00 0.00 0.00 34 1027.3
20260509155932 15 300 12.9 16.1 0.00 0.00 0.00 36 1027.3
20260509155429 15 299 24.1 30.6 0.00 0.00 0.00 35 1027.3
20260509154926 15 291 17.7 22.5 0.00 0.00 0.00 35 1027.3
20260509154422 15 317 22.5 25.7 0.00 0.00 0.00 34 1027.4
20260509153919 14 323 17.7 22.5 0.00 0.00 0.00 35 1027.1
20260509153416 14 281 32.2 38.6 0.00 0.00 0.00 33 1027.3
20260509152913 13 298 17.7 20.9 0.00 0.00 0.00 34 1027.4
20260509152409 14 290 16.1 16.1 0.00 0.00 0.00 35 1027.3
20260509151906 13 285 29.0 33.8 0.00 0.00 0.00 33 1027.3
20260509151402 13 287 24.1 27.4 0.00 0.00 0.00 35 1027.1
20260509150901 13 294 27.4 30.6 0.00 0.00 0.00 35 1027.2
20260509150358 13 296 19.3 24.1 0.00 0.00 0.00 35 1027.2
20260509145856 13 237 11.3 12.9 0.00 0.00 0.00 36 1027.5
20260509145356 13 323 12.9 16.1 0.00 0.00 0.00 34 1027.3
20260509144852 13 322 14.5 20.9 0.00 0.00 0.00 34 1027.3
20260509144349 13 285 9.7 12.9 0.00 0.00 0.00 34 1027.2
20260509143846 13 305 9.7 11.3 0.00 0.00 0.00 36 1027.2
20260509143344 12 258 9.7 11.3 0.00 0.00 0.00 44 1027.1
20260509142840 12 306 12.9 14.5 0.00 0.00 0.00 41 1027.1
20260509142336 12 290 17.7 20.9 0.00 0.00 0.00 42 1027.3
20260509141832 12 282 14.5 16.1 0.00 0.00 0.00 43 1027.1
20260509141329 12 280 8.0 9.7 0.00 0.00 0.00 49 1027.1
20260509140825 12 255 9.7 11.3 0.00 0.00 0.00 49 1027.0
20260509140323 11 247 4.8 4.8 0.00 0.00 0.00 54 1027.2
20260509135821 11 236 4.8 6.4 0.00 0.00 0.00 55 1027.1
20260509135318 11 269 8.0 9.7 0.00 0.00 0.00 56 1027.0
20260509134815 11 298 6.4 9.7 0.00 0.00 0.00 58 1026.8
20260509134312 10 264 8.0 9.7 0.00 0.00 0.00 63 1027.0
20260509133809 10 233 6.4 6.4 0.00 0.00 0.00 63 1026.9
20260509133306 10 239 4.8 6.4 0.00 0.00 0.00 64 1026.9
20260509132804 10 221 3.2 3.2 0.00 0.00 0.00 63 1026.8
20260509132306 10 233 4.8 4.8 0.00 0.00 0.00 64 1026.8
20260509131759 10 216 6.4 9.7 0.00 0.00 0.00 64 1026.5
20260509131256 10 236 6.4 6.4 0.00 0.00 0.00 64 1026.6
20260509130752 10 236 4.8 4.8 0.00 0.00 0.00 64 1026.5
20260509130248 10 233 4.8 4.8 0.00 0.00 0.00 63 1026.4
20260509125745 10 251 4.8 6.4 0.00 0.00 0.00 64 1026.6
20260509125242 10 236 3.2 3.2 0.00 0.00 0.00 66 1026.5
20260509124738 10 230 3.2 4.8 0.00 0.00 0.00 67 1026.4
20260509124234 10 222 3.2 4.8 0.00 0.00 0.00 67 1026.2
20260509123733 9 254 4.8 4.8 0.00 0.00 0.00 67 1026.3
20260509123230 10 267 4.8 4.8 0.00 0.00 0.00 66 1026.3
20260509122725 10 294 4.8 4.8 0.00 0.00 0.00 65 1026.0
20260509122222 10 312 6.4 6.4 0.00 0.00 0.00 65 1026.3
20260509121719 10 262 6.4 6.4 0.00 0.00 0.00 66 1026.2
20260509121217 10 245 3.2 3.2 0.00 0.00 0.00 67 1026.0
20260509120715 10 251 3.2 4.8 0.00 0.00 0.00 67 1026.1
20260509120212 10 289 6.4 9.7 0.00 0.00 0.00 66 1026.0
20260509115710 10 272 6.4 6.4 0.00 0.00 0.00 68 1025.7
20260509115207 10 264 3.2 3.2 0.00 0.00 0.00 67 1026.0
20260509114705 10 235 4.8 4.8 0.00 0.00 0.00 68 1025.7
20260509114204 10 247 6.4 6.4 0.00 0.00 0.00 66 1025.8
20260509113702 10 269 1.6 3.2 0.00 0.00 0.00 67 1025.6
20260509113159 10 263 4.8 4.8 0.00 0.00 0.00 67 1025.5
20260509112655 10 250 4.8 4.8 0.00 0.00 0.00 68 1025.5
20260509112152 10 260 3.2 4.8 0.00 0.00 0.00 67 1025.3
20260509111650 10 250 4.8 4.8 0.00 0.00 0.00 66 1025.5
20260509111146 11 273 6.4 6.4 0.00 0.00 0.00 62 1025.2
20260509110643 11 239 1.6 3.2 0.00 0.00 0.00 61 1025.0
20260509110140 12 313 8.0 9.7 0.00 0.00 0.00 58 1024.9
20260509105638 12 316 8.0 9.7 0.00 0.00 0.00 57 1024.9
20260509105136 12 354 8.0 11.3 0.00 0.00 0.00 58 1024.9
20260509104633 12 322 6.4 9.7 0.00 0.00 0.00 58 1024.9
20260509104129 12 329 6.4 9.7 0.00 0.00 0.00 58 1024.8
20260509103627 12 329 12.9 16.1 0.00 0.00 0.00 57 1024.7
20260509103125 11 319 8.0 11.3 0.00 0.00 0.00 59 1024.7
20260509102622 11 246 4.8 4.8 0.00 0.00 0.00 64 1024.8
20260509102114 10 286 4.8 4.8 0.00 0.00 0.00 65 1024.6
20260509101610 11 253 4.8 4.8 0.00 0.00 0.00 64 1024.6
20260509101107 11 293 3.2 3.2 0.00 0.00 0.00 63 1024.5
20260509100604 11 236 1.6 3.2 0.00 0.00 0.00 64 1024.6
20260509095557 11 231 6.4 6.4 0.00 0.00 0.00 65 1024.1
20260509095055 12 244 6.4 6.4 0.00 0.00 0.00 61 1024.0
20260509094551 12 259 0.0 0.0 0.00 0.00 0.00 59 1024.0
20260509094049 12 320 6.4 6.4 0.00 0.00 0.00 55 1024.0
20260509093547 13 315 4.8 4.8 0.00 0.00 0.00 55 1023.9
20260509093044 12 305 4.8 4.8 0.00 0.00 0.00 59 1023.8
20260509092542 11 278 1.6 1.6 0.00 0.00 0.00 62 1024.0
20260509092041 11 286 1.6 1.6 0.00 0.00 0.00 63 1023.8
20260509091538 12 246 0.0 0.0 0.00 0.00 0.00 62 1023.9
20260509091034 11 241 1.6 3.2 0.00 0.00 0.00 62 1023.7
20260509090532 12 220 3.2 3.2 0.00 0.00 0.00 63 1023.7
20260509090029 12 236 8.0 9.7 0.00 0.00 0.00 61 1023.6
20260509085526 12 281 6.4 9.7 0.00 0.00 0.00 59 1023.3
20260509085022 12 252 6.4 6.4 0.00 0.00 0.00 59 1023.5
20260509084519 13 267 4.8 4.8 0.00 0.00 0.00 56 1023.5
20260509084016 12 350 6.4 6.4 0.00 0.00 0.00 57 1023.2
20260509083514 13 257 6.4 6.4 0.00 0.00 0.00 55 1023.5
20260509083010 13 271 4.8 4.8 0.00 0.00 0.00 55 1023.2
20260509082508 13 267 3.2 3.2 0.00 0.00 0.00 53 1023.2
20260509082005 14 299 6.4 6.4 0.00 0.00 0.00 51 1023.2
20260509081502 14 307 6.4 6.4 0.00 0.00 0.00 50 1023.1
20260509080958 15 313 9.7 11.3 0.00 0.00 0.00 48 1023.0
20260509080457 15 340 6.4 6.4 0.00 0.00 0.00 48 1022.9
20260509075954 15 322 8.0 11.3 0.00 0.00 0.00 47 1022.8
20260509075451 15 325 9.7 11.3 0.00 0.00 0.00 47 1022.7
20260509074949 15 331 11.3 14.5 0.00 0.00 0.00 47 1022.5
20260509074446 15 330 9.7 11.3 0.00 0.00 0.00 47 1022.8
20260509073943 15 322 9.7 11.3 0.00 0.00 0.00 47 1022.8
20260509073439 15 343 6.4 9.7 0.00 0.00 0.00 46 1022.8
20260509072935 15 276 3.2 4.8 0.00 0.00 0.00 45 1022.8
20260509072433 15 314 14.5 14.5 0.00 0.00 0.00 43 1022.8
20260509071929 15 348 9.7 12.9 0.00 0.00 0.00 44 1022.4
20260509071426 15 279 14.5 16.1 0.00 0.00 0.00 44 1022.5
20260509070924 16 296 22.5 27.4 0.00 0.00 0.00 43 1022.7
20260509070420 16 300 11.3 14.5 0.00 0.00 0.00 41 1022.8
20260509065915 16 313 9.7 12.9 0.00 0.00 0.00 42 1022.5
20260509065411 16 315 19.3 24.1 0.00 0.00 0.00 42 1022.4
20260509064908 15 300 11.3 12.9 0.00 0.00 0.00 42 1022.3
20260509064406 15 321 16.1 17.7 0.00 0.00 0.00 43 1022.2
20260509063903 15 325 14.5 17.7 0.00 0.00 0.00 44 1022.1
20260509063359 15 335 24.1 30.6 0.00 0.00 0.00 43 1022.1
20260509062856 15 317 19.3 22.5 0.00 0.00 0.00 44 1022.1
20260509062353 15 305 11.3 12.9 0.00 0.00 0.00 44 1022.2
20260509061850 15 317 20.9 24.1 0.00 0.00 0.00 44 1022.4
20260509061348 15 302 16.1 22.5 0.00 0.00 0.00 46 1022.4
20260509060844 16 312 19.3 22.5 0.00 0.00 0.00 45 1022.5
20260509060342 16 335 20.9 25.7 0.00 0.00 0.00 44 1022.3
20260509055837 16 348 12.9 17.7 0.00 0.00 0.00 43 1022.4
20260509055333 16 319 22.5 24.1 0.00 0.00 0.00 42 1022.3
20260509054830 16 338 27.4 29.0 0.00 0.00 0.00 42 1022.2
20260509054326 16 328 24.1 29.0 0.00 0.00 0.00 41 1022.1
20260509053825 16 338 25.7 30.6 0.00 0.00 0.00 41 1022.3
20260509053322 16 340 17.7 24.1 0.00 0.00 0.00 45 1022.2
20260509052820 16 40 14.5 27.4 0.00 0.00 0.00 45 1022.1
20260509052317 16 301 6.4 6.4 0.00 0.00 0.00 45 1022.0
20260509051815 16 238 11.3 14.5 0.00 0.00 0.00 45 1022.1
20260509051313 16 18 8.0 11.3 0.00 0.00 0.00 42 1022.0
20260509050809 16 315 14.5 17.7 0.00 0.00 0.00 41 1022.3
20260509050306 17 313 17.7 22.5 0.00 0.00 0.00 39 1022.0
20260509045803 17 282 12.9 14.5 0.00 0.00 0.00 39 1021.6
20260509045259 17 280 12.9 17.7 0.00 0.00 0.00 40 1021.6
20260509044757 17 262 12.9 14.5 0.00 0.00 0.00 39 1021.6
20260509044255 17 287 17.7 17.7 0.00 0.00 0.00 38 1021.9
20260509043751 17 305 9.7 12.9 0.00 0.00 0.00 37 1021.8
20260509043247 17 276 9.7 11.3 0.00 0.00 0.00 37 1021.6
20260509042743 17 277 14.5 24.1 0.00 0.00 0.00 36 1021.6
20260509042239 17 256 16.1 17.7 0.00 0.00 0.00 36 1021.3
20260509041736 18 242 12.9 14.5 0.00 0.00 0.00 35 1021.4
20260509041233 18 299 9.7 11.3 0.00 0.00 0.00 34 1021.3
20260509040732 18 272 9.7 12.9 0.00 0.00 0.00 33 1021.3
20260509040228 18 294 11.3 12.9 0.00 0.00 0.00 34 1021.3
20260509035725 18 290 9.7 11.3 0.00 0.00 0.00 34 1021.2
20260509035222 18 260 9.7 11.3 0.00 0.00 0.00 35 1020.8